TITAN 3C TRANSTAGE DEB, 38698

Orbit data source: Space-Track

TITAN 3C TRANSTAGE DEB, 38698 is space debris in GEO originally from a launch on Thu, 26 Sep 1968 UTC launched from the Air Force Eastern Test Range (AFETR). Debris objects in space refer to the collection of defunct objects orbiting the Earth. Examples of debris include non-operational satellites, rocket bodies, and fragments generated from explosions, collisions, or faulty payload assembly.

Not visible in the next 10 days
Identifier
38698, 1968-081Y
Orbit
GEO
Country
Flag of USUS
Related business
Manufacturer
Unknown
Mission
Spacecraft
Bus & Motor
Unknown
Mass
Unknown
Launch date (UTC)
1968-09-26 (58 years ago)
Launch vehicle
Unknown
Launch site
Air Force Eastern Test Range (AFETR)
Object type
Payload
Rocket body
Debris
Shape & HBR
Unknown shape, 1.1 m
Radar Cross Section
Large (>1 m²)

Expand to show TLE details & history
Last TLE update: 1 day ago

TLE from 1 day ago
0 TITAN 3C TRANSTAGE DEB
1 38698U 68081Y   26257.32542616 -.00000128  00000-0  00000-0 0  9990
2 38698   3.7373  69.9185 0216517 181.0878 179.2152  1.04403343 86702
Epoch: 2026-09-14T07:48Z
TLE epoch observation values (Epoch: 2026-09-14T07:48:36.820Z)
Latitude
Longitude
-40.22087°
Altitude
35,551.115 km
Speed
3.05 km/s
True Right ascension
04h 40m 57s
True Declination
0° 00' 00"
Sunlit
Object was in daylight at epoch
Visualization orbit readout
Latitude
Unknown
Longitude
Unknown
Altitude
Unknown
Speed
Unknown
Apparent Right ascension
Unknown
Apparent Declination
Unknown
Sunlit
N/A
Visualization observer readout
Local Sidereal Time
04:10:29
Azimuth
Unknown
Elevation
Unknown
Doppler factor
Unknown
Orbital elements
Apogee altitude
35,556.542 km
Perigee altitude
33,779.112 km
Semi-major axis
41,045.964 km
Eccentricity
0.02165
Inclination
3.7373°
RAAN
69.9185°
Arg. of periapsis
181.0878°
True anomaly
179.24829°
Mean anomaly
179.2152°
Eccentric anomaly
179.23183°
Mean motion
0.261 °/min
Orbital period
1,379.32 mins
BSTAR
0
Loading maneuver chart data...
Computing Atmospheric mass density...

Documentation

Showing up to 5 results
|